Regional Weather Roundup
Issued by NWS

Home | Current Version | Previous Version | Text Only | Print | Product List | Glossary Off
Versions: 1 2 3 4 5 6 7 8 9 10 11 12 13 14 15 16 17 18 19 20 21 22 23 24 25 26 27 28 29 30 31 32 33 34 35 36 37 38 39 40 41 42 43 44 45 46 47 48 49 50

000
ASUS43 KLOT 291803
RWRIL

ILLINOIS REGIONAL WEATHER ROUNDUP
NATIONAL WEATHER SERVICE CHICAGO/ROMEOVILLE IL
100 PM CDT SAT APR 29 2017

NOTE: "FAIR" INDICATES FEW OR NO CLOUDS BELOW 12,000 FEET WITH NO
SIGNIFICANT WEATHER AND/OR OBSTRUCTIONS TO VISIBILITY.

* THESE STATIONS ARE NOT UNDER NWS QUALITY CONTROL. THEY ALSO MAY NOT
  REPORT WEATHER SUCH AS PRECIPITATION OR FOG.

ILZ001-002-007-009-015-016-024-291900-
NORTHWEST ILLINOIS

CITY           SKY/WX    TMP DP  RH WIND       PRES   REMARKS
MOLINE         LGT RAIN  43  39  86 NE18G30   30.07F FOG
6HR MIN TEMP:  43; 6HR MAX TEMP:  48; 6HR PCP:  0.23;

STERLING*      RAIN      43  40  89 NE14G21   30.14F
$$

ILZ003-004-008-010-011-017-018-291900-
NORTH CENTRAL ILLINOIS

CITY           SKY/WX    TMP DP  RH WIND       PRES   REMARKS
ROCKFORD       LGT RAIN  44  35  70 NE13      30.23R
6HR MIN TEMP:  44; 6HR MAX TEMP:  48; 6HR PCP:  0.01;

FREEPORT*      LGT RAIN  44  37  74 NE13      30.24R
ROCHELLE*      RAIN      42  39  88 NE14      30.17F
DE KALB*       LGT RAIN  41  37  83 NE20      30.19S
$$

ILZ005-006-012>014-019>023-291900-
NORTHEAST ILLINOIS

CITY           SKY/WX    TMP DP  RH WIND       PRES   REMARKS
CHICAGO-OHARE  LGT RAIN  42  35  76 NE16G25   30.19F
6HR MIN TEMP:  42; 6HR MAX TEMP:  46; 6HR PCP:  0.02;

CHICAGO-MIDWAY LGT RAIN  43  39  86 NE21      30.17F
6HR MIN TEMP:  43; 6HR MAX TEMP:  47; 6HR PCP:  0.06;

AURORA         HVY RAIN  42  37  82 NE16G25   30.17F
6HR MIN TEMP:  42; 6HR MAX TEMP:  48; 6HR PCP:  0.12;

LANSING*       RAIN      43  42  97 N13       30.17F
WAUKEGAN       CLOUDY    40  32  73 NE17G25   30.24R
6HR MIN TEMP:  40; 6HR MAX TEMP:  43;

DUPAGE AIRPORT RAIN      41  37  86 NE20      30.18F FOG
6HR MIN TEMP:  41; 6HR MAX TEMP:  47; 6HR PCP:  0.05;

WHEELING       LGT RAIN  40  36  86 NE17G28   30.23R
6HR MIN TEMP:  40; 6HR MAX TEMP:  44; 6HR PCP: TRACE;

MORRIS*        RAIN      43  40  89 NE9G16    30.13F
NORTHERLY ISL    N/A     42  38  85 N17         N/A
$$

LMZ740>746-291900-
SOUTHERN LAKE MICHIGAN

STATION/POSITION SKY/WX   TEMP    WIND        PRES    VSBY  WAVE
                          AIR SEA DIR/SP/G                  HT/PER
                          (F)     (DEG/KT/KT) (MB)    (MI)  (FT/S)
SOUTHERN BUOY              40 41   20/ 19/ 23 1023.2          5/ 6
HARRISON CRIB              42      10/ 22/ 24   N/A
BURNHAM HARBOR             41      20/ 15/ 21   N/A
CALUMET HARBOR             42     350/ 13/ 18 1022.2R
BURNS HARBOR               44      30/ 18/ 23 1021.7S
MICHIGAN CITY              44      10/ 20/ 23   N/A
MICHIGAN CITY 6N           43 47                N/A           6/ 6
ST. JOSEPH                 46 48   30/ 12/ 16 1022.6R         5/ 5
$$

ILZ025>027-034>036-040-047-049-050-058-095>099-291900-
WEST-CENTRAL ILLINOIS

CITY           SKY/WX    TMP DP  RH WIND       PRES   REMARKS
QUINCY         HVY RAIN  47  46  97 NE17      29.94F FOG
GALESBURG*     LGT RAIN  42  40  91 NE28G33   29.99F
MACOMB*        LGT RAIN  45  44  96 NE22      29.98F
JACKSONVILLE*  CLOUDY    49  49  97 E20G25    29.92F
PITTSFIELD*    TSTM      49  48  97 NE14      29.91F
$$

ILZ028>032-037-038-041>044-048-051>054-059>061-291900-
CENTRAL ILLINOIS

CITY           SKY/WX    TMP DP  RH WIND       PRES   REMARKS
BLOOMINGTON    LGT RAIN  46  44  93 E18G33    30.04F
DECATUR        CLOUDY    52  52 100 E21       29.95F
PEORIA         RAIN      45  44  97 NE30G39   29.94F FOG
6HR MIN TEMP:  45; 6HR MAX TEMP:  49; 6HR PCP:  0.24;

SPRINGFIELD    HVY RAIN  51  49  92 NE9       29.97F FOG
6HR MIN TEMP:  49; 6HR MAX TEMP:  51; 6HR PCP:  0.87;

TAYLORVILLE    NOT AVBL
$$

ILZ033-039-045-046-055>057-062-063-291900-
EAST-CENTRAL ILLINOIS

CITY           SKY/WX    TMP DP  RH WIND       PRES   REMARKS
CHAMPAIGN      CLOUDY    53  50  89 NE24      29.98F
MATTOON        CLOUDY    58  57  97 NE9       29.96F
$$

ILZ079-100>102-291900-
SOUTHWEST ILLINOIS

CITY           SKY/WX    TMP DP  RH WIND       PRES   REMARKS
ALTON          CLOUDY    61  59  94 NE9       29.88F
BELLEVILLE     CLOUDY    66  66 100 E12       29.86F
CAHOKIA*       CLOUDY    69  63  81 SE15G22   29.84F
$$

ILZ064>066-069>071-074>076-080>082-084>086-088>090-092>094-291900-
SOUTH-CENTRAL ILLINOIS

CITY           SKY/WX    TMP DP  RH WIND       PRES   REMARKS
CARBONDALE     CLOUDY    75  70  84 SE13      29.86F
6HR MIN TEMP:  63; 6HR MAX TEMP:  75; 6HR PCP:  1.00;

CAIRO*         CLOUDY    82  69  65 S12       29.88F HX  85
EFFINGHAM*     CLOUDY    64  64 100 NE8       29.95F FOG
MARION         MOSUNNY   77  75  94 SE12      29.89F
MT. VERNON     PTSUNNY   75  66  73 E15       29.90F
CENTRALIA*     CLOUDY    72  65  80 E10G16    29.88F
SALEM*         CLOUDY    72  64  74 SE10G18   29.90F
$$

ILZ067-068-072-073-078-083-087-091-291900-
SOUTHEAST ILLINOIS

CITY           SKY/WX    TMP DP  RH WIND       PRES   REMARKS
LAWRENCEVILLE  MOSUNNY   76  67  73 SE13      29.97F
FLORA*         CLOUDY    74  67  76 SE18      29.92F
FAIRFIELD*     CLOUDY    74  66  76 E15       29.90F
HARRISBURG*    MOSUNNY   77  71  82 E16       29.91F
ROBINSON*      CLOUDY    72  65  78 SE14      29.98F
CARMI*         CLOUDY    75  69  81 E16G22    29.93F
$$

ABBREVIATIONS USED IN REMARKS
   TC - TEMPERATURE IN CELSIUS
  WCI - WIND CHILL INDEX
   HX - HEAT INDEX
  VSB - VISIBILITY
$$





USA.gov is the U.S. government's official web portal to all federal, state and local government web resources and services.